When you browse on this site, cookies collect data to enhance your experience and personalize the content and advertising you see.
Visit our Privacy Policy to learn more. By continuing to use the site, you agree to this use of cookies and data.
  • In Austria
  • List of Countries
  • For 7 days
  • Water Temperature
  • Satellite Maps
  • Weather Map
  • News
  • Weather Widgets
  • user-avatar
    Login

    Hourly Weather Gjirokaster

    Today, 21 March, Thursday

    Time Temperature Precipitation Wind Pressure Humidity
    00:00 +6°C° 0 mm 2 mps 655 mmHg 75%
    01:00 +6°C° 0 mm 2 mps 655 mmHg 76%
    02:00 +5°C° 0 mm 2 mps 654 mmHg 77%
    03:00 +5°C° 0 mm 2 mps 654 mmHg 79%
    04:00 +5°C° 0 mm 2 mps 654 mmHg 80%
    05:00 +4°C° 0 mm 3 mps 655 mmHg 80%
    06:00 +4°C° 0 mm 3 mps 655 mmHg 79%
    07:00 +5°C° 0 mm 3 mps 656 mmHg 77%
    08:00 +8°C° 0 mm 3 mps 656 mmHg 70%
    09:00 +9°C° 0 mm 3 mps 657 mmHg 63%
    10:00 +10°C° 0 mm 3 mps 657 mmHg 55%
    11:00 +11°C° 0 mm 3 mps 657 mmHg 53%
    12:00 +12°C° 0 mm 2 mps 657 mmHg 50%
    13:00 +13°C° 0 mm 2 mps 658 mmHg 47%
    14:00 +13°C° 0 mm 2 mps 657 mmHg 48%
    15:00 +12°C° 0 mm 2 mps 657 mmHg 49%
    16:00 +12°C° 0 mm 2 mps 657 mmHg 50%
    17:00 +9°C° 0 mm 2 mps 656 mmHg 55%
    18:00 +8°C° 0 mm 2 mps 656 mmHg 60%
    19:00 +6°C° 0 mm 2 mps 656 mmHg 65%
    20:00 +6°C° 0 mm 2 mps 656 mmHg 67%
    21:00 +5°C° 0 mm 2 mps 656 mmHg 70%
    22:00 +4°C° 0 mm 2 mps 656 mmHg 72%
    23:00 +4°C° 0 mm 2 mps 656 mmHg 73%

    Tomorrow, 22 March, Friday

    Time Temperature Precipitation Wind Pressure Humidity
    00:00 +4°C° 0 mm 2 mps 656 mmHg 74%
    01:00 +2°C° 0 mm 3 mps 656 mmHg 75%
    02:00 +2°C° 0 mm 3 mps 656 mmHg 76%
    03:00 +2°C° 0 mm 3 mps 656 mmHg 76%
    04:00 +1°C° 0 mm 3 mps 655 mmHg 77%
    05:00 +2°C° 0 mm 3 mps 656 mmHg 76%
    06:00 +2°C° 0 mm 3 mps 656 mmHg 76%
    07:00 +3°C° 0 mm 3 mps 656 mmHg 76%
    08:00 +5°C° 0 mm 2 mps 657 mmHg 68%
    09:00 +7°C° 0 mm 2 mps 657 mmHg 61%
    10:00 +9°C° 0 mm 2 mps 658 mmHg 53%
    11:00 +10°C° 0 mm 2 mps 658 mmHg 50%
    12:00 +12°C° 0 mm 2 mps 658 mmHg 48%
    13:00 +13°C° 0 mm 2 mps 658 mmHg 45%
    14:00 +12°C° 0 mm 2 mps 657 mmHg 46%
    15:00 +12°C° 0 mm 2 mps 657 mmHg 47%
    16:00 +12°C° 0 mm 2 mps 656 mmHg 48%
    17:00 +9°C° 0 mm 2 mps 656 mmHg 53%
    18:00 +8°C° 0 mm 2 mps 655 mmHg 58%
    19:00 +6°C° 0 mm 2 mps 655 mmHg 63%
    20:00 +6°C° 0 mm 2 mps 655 mmHg 64%
    21:00 +5°C° 0 mm 2 mps 655 mmHg 65%
    22:00 +4°C° 0 mm 2 mps 655 mmHg 66%
    23:00 +4°C° 0 mm 2 mps 655 mmHg 67%

    Day after tomorrow, 23 March, Saturday

    Time Temperature Precipitation Wind Pressure Humidity
    00:00 +4°C° 0 mm 2 mps 654 mmHg 69%
    01:00 +3°C° 0 mm 2 mps 654 mmHg 70%
    02:00 +3°C° 0 mm 2 mps 654 mmHg 71%
    03:00 +3°C° 0 mm 2 mps 654 mmHg 72%
    04:00 +3°C° 0 mm 2 mps 653 mmHg 72%
    05:00 +3°C° 0 mm 2 mps 654 mmHg 72%
    06:00 +4°C° 0 mm 2 mps 654 mmHg 72%
    07:00 +4°C° 0 mm 2 mps 654 mmHg 71%
    08:00 +6°C° 0 mm 2 mps 654 mmHg 64%
    09:00 +8°C° 0 mm 2 mps 655 mmHg 57%
    10:00 +11°C° 0 mm 1 mps 655 mmHg 49%
    11:00 +12°C° 0 mm 1 mps 655 mmHg 47%
    12:00 +13°C° 0 mm 2 mps 655 mmHg 45%
    13:00 +14°C° 0 mm 2 mps 655 mmHg 43%
    14:00 +13°C° 0 mm 2 mps 655 mmHg 45%
    15:00 +13°C° 0 mm 2 mps 655 mmHg 47%
    16:00 +13°C° 0 mm 2 mps 654 mmHg 49%
    17:00 +10°C° 0 mm 2 mps 654 mmHg 54%
    18:00 +9°C° 0 mm 2 mps 654 mmHg 60%
    19:00 +8°C° 0 mm 1 mps 654 mmHg 66%
    20:00 +8°C° 0 mm 1 mps 654 mmHg 66%
    21:00 +7°C° 0 mm 1 mps 654 mmHg 67%
    22:00 +7°C° 0 mm 1 mps 654 mmHg 67%
    23:00 +7°C° 0 mm 1 mps 654 mmHg 67%

    24 March, Sunday

    Time Temperature Precipitation Wind Pressure Humidity
    00:00 +6°C° 0 mm 1 mps 654 mmHg 67%
    01:00 +6°C° 0 mm 1 mps 653 mmHg 67%
    02:00 +6°C° 0 mm 1 mps 653 mmHg 67%
    03:00 +5°C° 0 mm 1 mps 653 mmHg 67%
    04:00 +5°C° 0 mm 1 mps 653 mmHg 67%
    05:00 +6°C° 0 mm 1 mps 653 mmHg 66%
    06:00 +6°C° 0 mm 1 mps 654 mmHg 66%
    07:00 +6°C° 0 mm 2 mps 654 mmHg 66%
    08:00 +9°C° 0 mm 1 mps 654 mmHg 59%
    09:00 +11°C° 0 mm 1 mps 655 mmHg 51%
    10:00 +13°C° 0 mm 1 mps 656 mmHg 44%
    11:00 +13°C° 0 mm 1 mps 656 mmHg 43%
    12:00 +14°C° 0 mm 2 mps 656 mmHg 42%
    13:00 +14°C° 0 mm 2 mps 655 mmHg 41%
    14:00 +14°C° 0 mm 2 mps 655 mmHg 44%
    15:00 +12°C° 0 mm 3 mps 655 mmHg 47%
    16:00 +12°C° 0 mm 3 mps 654 mmHg 51%
    17:00 +10°C° 0 mm 2 mps 654 mmHg 57%
    18:00 +9°C° 0 mm 2 mps 654 mmHg 64%
    19:00 +7°C° 0 mm 2 mps 653 mmHg 71%
    20:00 +8°C° 0 mm 1 mps 653 mmHg 69%
    21:00 +7°C° 0 mm 1 mps 653 mmHg 68%
    22:00 +7°C° 0 mm 1 mps 653 mmHg 66%
    23:00 +6°C° 0 mm 1 mps 653 mmHg 65%

    25 March, Monday

    Time Temperature Precipitation Wind Pressure Humidity
    00:00 +6°C° 0 mm 1 mps 653 mmHg 64%
    01:00 +6°C° 0 mm 1 mps 653 mmHg 63%
    02:00 +6°C° 0 mm 1 mps 652 mmHg 63%
    03:00 +5°C° 0 mm 1 mps 652 mmHg 63%
    04:00 +5°C° 0 mm 1 mps 652 mmHg 63%
    05:00 +6°C° 0 mm 1 mps 652 mmHg 62%
    06:00 +6°C° 0 mm 1 mps 652 mmHg 61%
    07:00 +7°C° 0 mm 1 mps 652 mmHg 60%
    08:00 +8°C° 0 mm 1 mps 653 mmHg 55%
    09:00 +10°C° 0 mm 1 mps 653 mmHg 50%
    10:00 +12°C° 0 mm 1 mps 654 mmHg 46%
    11:00 +12°C° 0 mm 2 mps 653 mmHg 45%
    12:00 +13°C° 0 mm 2 mps 653 mmHg 44%
    13:00 +12°C° 0 mm 3 mps 653 mmHg 43%
    14:00 +12°C° 0 mm 3 mps 652 mmHg 48%
    15:00 +11°C° 0 mm 3 mps 652 mmHg 52%
    16:00 +11°C° 0 mm 3 mps 651 mmHg 56%
    17:00 +9°C° 0 mm 3 mps 651 mmHg 64%
    18:00 +7°C° 0 mm 2 mps 651 mmHg 72%
    19:00 +6°C° 0 mm 2 mps 650 mmHg 80%
    20:00 +5°C° 0 mm 2 mps 650 mmHg 81%
    21:00 +6°C° 0 mm 1 mps 650 mmHg 82%
    22:00 +5°C° 0 mm 1 mps 650 mmHg 83%
    23:00 +5°C° 0 mm 1 mps 650 mmHg 82%

    26 March, Tuesday

    Time Temperature Precipitation Wind Pressure Humidity
    00:00 +5°C° 0 mm 1 mps 650 mmHg 81%
    01:00 +5°C° 0 mm 1 mps 650 mmHg 80%
    02:00 +5°C° 0 mm 1 mps 649 mmHg 79%
    03:00 +4°C° 0 mm 1 mps 649 mmHg 78%
    04:00 +4°C° 0 mm 1 mps 649 mmHg 78%
    05:00 +5°C° 0 mm 1 mps 649 mmHg 75%
    06:00 +5°C° 0 mm 1 mps 650 mmHg 73%
    07:00 +6°C° 0 mm 1 mps 650 mmHg 70%
    08:00 +7°C° 0 mm 1 mps 650 mmHg 65%
    09:00 +9°C° 0 mm 1 mps 651 mmHg 59%
    10:00 +11°C° 0 mm 1 mps 651 mmHg 54%
    11:00 +10°C° 0.7 mm 2 mps 651 mmHg 54%
    12:00 +10°C° 0.7 mm 3 mps 650 mmHg 55%
    13:00 +10°C° 0.7 mm 4 mps 650 mmHg 56%
    14:00 +8°C° 0.7 mm 5 mps 650 mmHg 57%
    15:00 +8°C° 0.7 mm 5 mps 649 mmHg 58%
    16:00 +7°C° 0.7 mm 6 mps 649 mmHg 60%
    17:00 +5°C° 0 mm 6 mps 649 mmHg 63%
    18:00 +3°C° 0 mm 5 mps 649 mmHg 67%
    19:00 +1°C° 0 mm 4 mps 649 mmHg 70%
    20:00 +1°C° 0 mm 4 mps 649 mmHg 73%
    21:00 +1°C° 0 mm 3 mps 649 mmHg 75%
    22:00 +1°C° 0 mm 3 mps 649 mmHg 78%
    23:00 +1°C° 0 mm 3 mps 649 mmHg 78%
    Show more